| time (UTC) | temp F | wind direction | speed MPH | gust MPH | rain 1hr in | rain 24hr in | rain mn in | humidity % | barometer mb |
| 20260510213108 | 64 | 331 | 1.0 | 9.0 | 0.00 | 0.08 | 0.02 | ||
| 20260510210109 | 64 | 292 | 5.0 | 12.0 | 0.00 | 0.10 | 0.02 | ||
| 20260510203108 | 64 | 258 | 0.0 | 2.0 | 0.00 | 0.12 | 0.02 | ||
| 20260510200109 | 66 | 258 | 0.0 | 11.0 | 0.01 | 0.15 | 0.02 | ||
| 20260510193109 | 66 | 262 | 3.0 | 9.0 | 0.01 | 0.18 | 0.02 | ||
| 20260510190109 | 65 | 266 | 0.0 | 11.0 | 0.00 | 0.17 | 0.01 | ||
| 20260510173109 | 69 | 234 | 7.0 | 10.0 | 0.00 | 0.18 | 0.01 | ||
| 20260510170109 | 69 | 142 | 5.0 | 9.0 | 0.00 | 0.18 | 0.01 | ||
| 20260510163108 | 67 | 253 | 6.0 | 15.0 | 0.00 | 0.20 | 0.01 | ||
| 20260510160109 | 67 | 259 | 2.0 | 11.0 | 0.00 | 0.20 | 0.01 | ||
| 20260510150108 | 62 | 257 | 2.0 | 8.0 | 0.00 | 0.21 | 0.01 | ||
| 20260510143108 | 58 | 251 | 3.0 | 8.0 | 0.00 | 0.21 | 0.01 | ||
| 20260510140108 | 59 | 130 | 1.0 | 6.0 | 0.00 | 0.22 | 0.01 | ||
| 20260510133108 | 56 | 145 | 4.0 | 5.0 | 0.00 | 0.22 | 0.01 | ||
| 20260510130108 | 54 | 248 | 1.0 | 5.0 | 0.00 | 0.22 | 0.01 | ||
| 20260510120108 | 54 | 263 | 1.0 | 4.0 | 0.00 | 0.23 | 0.01 | ||
| 20260510113108 | 53 | 264 | 1.0 | 4.0 | 0.00 | 0.24 | 0.01 | ||
| 20260510110108 | 53 | 265 | 0.0 | 4.0 | 0.00 | 0.25 | 0.01 | ||
| 20260510103108 | 53 | 265 | 1.0 | 6.0 | 0.00 | 0.26 | 0.01 | ||
| 20260510100108 | 52 | 157 | 1.0 | 5.0 | 0.00 | 0.28 | 0.01 | ||
| 20260510093108 | 52 | 261 | 1.0 | 5.0 | 0.00 | 0.30 | 0.01 | ||
| 20260510090108 | 52 | 261 | 1.0 | 3.0 | 0.00 | 0.32 | 0.01 | ||
| 20260510080108 | 52 | 262 | 1.0 | 5.0 | 0.00 | 0.33 | 0.01 | ||
| 20260510073108 | 52 | 236 | 3.0 | 6.0 | 0.00 | 0.33 | 0.01 | ||
| 20260510070108 | 52 | 190 | 1.0 | 3.0 | 0.00 | 0.33 | 0.01 | ||
| 20260510060108 | 52 | 189 | 0.0 | 2.0 | 0.00 | 0.33 | 0.01 | ||
| 20260510043108 | 53 | 187 | 0.0 | 3.0 | 0.00 | 0.32 | 0.00 | ||
| 20260510040108 | 53 | 189 | 0.0 | 2.0 | 0.00 | 0.32 | 0.00 | ||
| 20260510033108 | 52 | 176 | 0.0 | 1.0 | 0.00 | 0.32 | 0.32 | ||
| 20260510023107 | 53 | 177 | 0.0 | 2.0 | 0.00 | 0.32 | 0.32 | ||
| 20260510020107 | 53 | 177 | 0.0 | 2.0 | 0.00 | 0.32 | 0.32 | ||
| 20260510013108 | 52 | 180 | 0.0 | 2.0 | 0.00 | 0.32 | 0.32 | ||
| 20260510003108 | 52 | 179 | 1.0 | 3.0 | 0.00 | 0.32 | 0.32 | ||
| 20260510000108 | 52 | 180 | 0.0 | 5.0 | 0.00 | 0.32 | 0.32 | ||
| 20260509233107 | 52 | 132 | 2.0 | 5.0 | 0.00 | 0.32 | 0.32 | ||
| 20260509223107 | 51 | 251 | 2.0 | 5.0 | 0.06 | 0.32 | 0.32 | ||
| 20260509220107 | 51 | 47 | 0.0 | 3.0 | 0.05 | 0.29 | 0.29 |